Volver al catálogo

STARLINK-5086

ActivoComunicacionesVLEO
NORAD 54856·PAYLOAD·🇺🇸 United States

Lanzado Dec 28, 2022 desde Cape Canaveral Space Force Station

Loading…

Próximos Pases (próximas 24 horas)

TLE

ActualizadoSource: CelesTrak SupGP

Época: Sep 15, 2026, 01:23 UTC

1 54856C 22177AN  26258.05812500  .00048176  00000+0  17456-2 0  2589
2 54856  43.0003 132.2831 0001336 274.1857 322.6670 15.27542325    10

Sigue STARLINK-5086 en tiempo real con AllMySat

Download on the App Store